[[{"header":{"parameterUnit":"m.s-1","parameterCategory":1,"la1":30.2991,"la2":30.254,"lo1":-89.0895,"lo2":-89.0444,"dy":0.0017,"dx":0.0017,"nx":28,"ny":28,"refTime":"2023-11-12T09:00:00:Z","depth":0,"parameterNumber":2,"parameterNumberName":"U-component_of_WINDS"},"data":[0,0,0,0,0,0,0,0,0,0,0,0,0,0,0,0,0,0,0,0,0,0,0,0,0,0,0,0,0,0,0,0,0,0,0,0,0,0,0,0,0,0,0,0,0,0,0,0,0,0,0,0,0,0,0,0,0,0,-2.1946,-2.1946,0,-2.1965,-2.1965,-2.1965,-2.1902,-2.19,-2.1898,-2.1896,-2.1917,-2.1919,-2.1921,0,0,0,0,0,0,0,0,0,0,0,0,0,-2.1855,-2.1857,-2.1946,-2.1946,-2.1946,-2.1965,-2.1965,-2.1966,-2.1902,-2.19,-2.1898,-2.1895,-2.1916,-2.1919,-2.1922,0,0,0,0,0,0,0,0,0,0,0,0,0,-2.1886,-2.1857,-2.1946,-2.1917,-2.1915,-2.1965,-2.1965,-2.1966,-2.1903,-2.19,-2.1897,-2.1894,-2.1915,-2.1918,-2.1922,-2.2001,0,0,-2.1933,-2.1934,0,0,0,0,0,0,0,0,-2.1885,-2.189,-2.1921,-2.1919,-2.1917,-2.1928,-2.194,-2.1978,-2.1904,-2.1907,-2.1896,-2.1893,-2.1923,-2.1926,-2.1936,-2.2002,-2.2003,-2.1933,-2.1935,-2.1937,-2.1938,0,0,0,0,0,0,0,-2.1882,-2.1888,-2.1953,-2.1922,-2.1919,-2.1903,-2.1904,-2.1947,-2.1931,-2.1907,-2.1902,-2.1905,-2.1921,-2.1932,-2.1936,-2.2003,-2.1933,-2.1936,-2.1938,-2.1939,-2.2135,-2.2138,0,0,0,0,0,0,-2.1884,-2.1887,-2.1953,-2.1954,-2.1893,-2.1907,-2.1909,-2.1927,-2.193,-2.1928,-2.1908,-2.1902,-2.1928,-2.1932,-2.1936,-2.2029,-2.1936,-2.194,-2.1942,-2.2132,-2.2136,-2.2139,0,0,0,0,0,0,-2.1882,-2.189,-2.1952,-2.1919,-2.1926,-2.1912,-2.1933,-2.1929,-2.194,-2.1931,-2.1928,-2.1922,-2.1926,-2.1931,-2.1985,-2.2029,-2.1941,-2.1945,-2.2129,-2.2133,-2.2138,-2.2216,0,0,0,0,0,0,-2.188,-2.189,-2.192,-2.192,-2.1928,-2.2001,-2.1936,-2.1932,-2.1946,-2.194,-2.1944,-2.1942,-2.1924,-2.198,-2.1989,-2.2032,-2.1947,-2.2125,-2.2131,-2.2136,-2.2209,-2.2223,-2.2234,0,0,0,0,0,-2.1877,-2.1942,-2.1922,-2.193,-2.1965,-2.2004,-2.2008,-2.1986,-2.195,-2.198,-2.1974,-2.1942,-2.2022,-2.1986,-2.1995,-2.204,-2.2122,-2.2129,-2.2136,-2.2204,-2.222,-2.2234,0,0,0,0,0,0,-2.1948,-2.1941,-2.1919,-2.1986,-2.1996,-2.1993,-2.2031,-2.2004,-2.2024,-2.2017,-2.1988,-2.199,-2.2049,-2.205,-2.201,-2.2117,-2.2066,-2.2075,-2.2115,-2.213,-2.2142,-2.2141,-2.195,0,0,0,0,0,-2.1971,-2.2003,-2.1995,-2.2055,-2.2061,-2.2045,-2.2061,-2.2043,-2.2052,-2.2056,-2.2054,-2.2064,-2.2092,-2.2111,-2.2135,-2.2209,-2.2209,-2.2244,-2.2256,-2.2266,-2.2275,-2.2313,-2.2329,-2.2162,-2.2162,-2.2162,0,0,-2.2019,-2.202,-2.2042,-2.2069,-2.2075,-2.2109,-2.2049,-2.2087,-2.2112,-2.2062,-2.2113,-2.2112,-2.2121,-2.2185,-2.2213,-2.2188,-2.2321,-2.2275,-2.2283,-2.2286,-2.2322,-2.2338,-2.2352,-2.2167,-2.2166,-2.2165,0,0,-2.2125,-2.2129,-2.2179,-2.2186,-2.2194,-2.2183,-2.2195,-2.2196,-2.2193,-2.2244,-2.2207,-2.2236,-2.2284,-2.2292,-2.2303,-2.2411,-2.2382,-2.242,-2.2484,-2.2522,-2.2536,-2.2547,-2.2586,-2.26,-2.2428,-2.2428,-2.2428,0,-2.2185,-2.2234,-2.2208,-2.2249,-2.2262,-2.2217,-2.2268,-2.2276,-2.2292,-2.2303,-2.2273,-2.2332,-2.2336,-2.2401,-2.2427,-2.2437,-2.245,-2.242,-2.2536,-2.2547,-2.2557,-2.2594,-2.2609,-2.2433,-2.2432,-2.2432,-2.2431,0,-2.2307,-2.2342,-2.2381,-2.2398,-2.2416,-2.2461,-2.2442,-2.2463,-2.2443,-2.2435,-2.2487,-2.2489,-2.2513,-2.2527,-2.2508,-2.259,-2.2573,-2.254,-2.2489,-2.2578,-2.2613,-2.2626,-2.2439,-2.2438,-2.2436,-2.2435,0,0,-2.246,-2.2461,-2.2476,-2.2483,-2.2489,-2.2515,-2.2558,-2.2582,-2.26,-2.2613,-2.2649,-2.269,-2.2659,-2.2671,-2.2653,-2.2686,-2.2772,-2.2649,-2.2648,-2.2672,-2.2862,-2.2888,-2.2904,-2.2752,-2.2754,-2.2756,-2.2861,0,-2.2565,-2.2639,-2.2616,-2.2691,-2.2723,-2.268,-2.2717,-2.2725,-2.2718,-2.2744,-2.2736,-2.2767,-2.2723,-2.273,-2.2761,-2.2755,-2.281,-2.2747,-2.2785,-2.2787,-2.2785,-2.2922,-2.2949,-2.3048,-2.2875,-2.2877,-2.2878,0,-2.2697,-2.2715,-2.2793,-2.2793,-2.2805,-2.284,-2.2859,-2.2884,-2.2892,-2.2884,-2.2898,-2.2872,-2.2914,-2.2861,-2.2919,-2.2877,-2.2891,-2.289,-2.2893,-2.2897,-2.2839,-2.293,-2.3079,-2.3095,-2.2899,-2.2897,-2.2896,0,-2.2802,-2.2845,-2.2897,-2.2904,-2.2905,-2.293,-2.2932,-2.2937,-2.2952,-2.2969,-2.2979,-2.3,-2.3013,-2.303,-2.3011,-2.2974,-2.3072,-2.3017,-2.3067,-2.3068,-2.3091,-2.309,-2.3245,-2.3098,-2.3098,-2.3098,-2.3097,0,-2.2922,-2.2971,-2.2943,-2.2976,-2.303,-2.3003,-2.3057,-2.3054,-2.3058,-2.3089,-2.3053,-2.3083,-2.3055,-2.3082,-2.3067,-2.3117,-2.3123,-2.3118,-2.3114,-2.3122,-2.3123,-2.3132,-2.3125,-2.3102,-2.3101,-2.31,-2.3099,0,-2.3048,-2.3031,-2.3085,-2.3082,-2.3082,-2.3122,-2.3119,-2.3149,-2.3139,-2.3178,-2.3186,-2.317,-2.32,-2.3182,-2.3213,-2.3203,-2.3269,-2.3254,-2.3266,-2.3263,-2.3314,-2.331,-2.3481,-2.3503,-2.3342,-2.3343,-2.3344,0,-2.3126,-2.3163,-2.3164,-2.3181,-2.3186,-2.3215,-2.323,-2.3205,-2.3222,-2.3233,-2.3261,-2.3288,-2.3308,-2.3358,-2.335,-2.3373,-2.3359,-2.3418,-2.3363,-2.337,-2.3361,-2.3359,-2.3363,-2.3429,-2.3431,-2.3433,-2.3434,0,-2.3267,-2.3257,-2.328,-2.3301,-2.332,-2.3336,-2.3348,-2.3364,-2.3339,-2.336,-2.339,-2.3406,-2.3436,-2.3463,-2.3483,-2.3484,-2.3455,-2.3451,-2.3464,-2.3473,-2.3479,-2.3477,-2.3298,-2.3448,-2.3446,-2.3445,-2.3445,-2.3444,-2.3373,-2.3403,-2.3408,-2.3436,-2.3442,-2.3454,-2.3481,-2.3474,-2.3499,-2.3522,-2.3505,-2.3541,-2.3546,-2.3569,-2.3574,-2.3602,-2.3578,-2.3597,-2.3602,-2.3607,-2.3614,-2.3474,-2.3605,-2.3605,-2.3604,-2.3604,-2.3604,0,-2.3512,-2.3513,-2.3538,-2.3556,-2.3577,-2.3547,-2.3559,-2.3579,-2.3611,-2.3618,-2.3639,-2.3673,-2.3699,-2.3692,-2.3715,-2.3738,-2.3725,-2.3745,-2.3744,-2.3745,-2.3634,-2.3621,-2.3755,-2.3755,-2.3755,-2.3755,-2.3755,-2.3755,-2.3588,-2.3638,-2.3628,-2.3682,-2.3682,-2.3716,-2.3726,-2.3736,-2.3742,-2.3782,-2.3803,-2.3798,-2.38,-2.3823,-2.3845,-2.3842,-2.3853,-2.3878,-2.3871,-2.3767,-2.3752,-2.3738,-2.3726,-2.388,-2.388,-2.3979,-2.398,-2.3981]},{"header":{"parameterUnit":"m.s-1","parameterCategory":1,"la1":30.2991,"la2":30.254,"lo1":-89.0895,"lo2":-89.0444,"dy":0.0017,"dx":0.0017,"nx":28,"ny":28,"refTime":"2023-11-12T09:00:00:Z","depth":0,"parameterNumber":3,"parameterNumberName":"V-component_of_WINDS"},"data":[0,0,0,0,0,0,0,0,0,0,0,0,0,0,0,0,0,0,0,0,0,0,0,0,0,0,0,0,0,0,0,0,0,0,0,0,0,0,0,0,0,0,0,0,0,0,0,0,0,0,0,0,0,0,0,0,0,0,-5.0438,-5.0439,0,-5.0479,-5.0479,-5.048,-5.0422,-5.042,-5.0418,-5.0416,-5.0453,-5.0455,-5.0458,0,0,0,0,0,0,0,0,0,0,0,0,0,-5.0306,-5.0308,-5.0438,-5.0439,-5.0439,-5.0479,-5.0479,-5.048,-5.0422,-5.042,-5.0417,-5.0415,-5.0452,-5.0455,-5.0458,0,0,0,0,0,0,0,0,0,0,0,0,0,-5.0356,-5.0309,-5.0438,-5.0415,-5.0414,-5.0479,-5.0479,-5.048,-5.0423,-5.0419,-5.0416,-5.0414,-5.045,-5.0455,-5.0459,-5.0547,0,0,-5.0472,-5.0474,0,0,0,0,0,0,0,0,-5.0354,-5.0361,-5.0418,-5.0417,-5.0415,-5.0442,-5.0446,-5.0502,-5.0423,-5.0419,-5.0416,-5.0412,-5.0451,-5.0455,-5.0469,-5.0549,-5.055,-5.0473,-5.0475,-5.0477,-5.0478,0,0,0,0,0,0,0,-5.035,-5.0359,-5.0454,-5.0419,-5.0417,-5.0401,-5.0405,-5.0456,-5.0452,-5.0419,-5.0415,-5.0421,-5.045,-5.0465,-5.047,-5.0551,-5.0472,-5.0476,-5.0479,-5.0481,-5.0703,-5.0706,0,0,0,0,0,0,-5.035,-5.0357,-5.0453,-5.0455,-5.0376,-5.0406,-5.0411,-5.0437,-5.0451,-5.045,-5.0423,-5.0418,-5.046,-5.0465,-5.0471,-5.0575,-5.0477,-5.0481,-5.0484,-5.07,-5.0704,-5.0708,0,0,0,0,0,0,-5.0347,-5.0359,-5.0451,-5.0405,-5.0415,-5.0412,-5.0441,-5.0439,-5.0455,-5.0454,-5.0453,-5.0441,-5.0457,-5.0465,-5.0529,-5.0575,-5.0483,-5.0487,-5.0696,-5.0701,-5.0706,-5.0783,0,0,0,0,0,0,-5.0344,-5.0359,-5.0393,-5.0406,-5.0418,-5.051,-5.0444,-5.0442,-5.0463,-5.0456,-5.047,-5.0469,-5.0456,-5.0523,-5.0533,-5.0579,-5.049,-5.0692,-5.0698,-5.0704,-5.0776,-5.079,-5.0802,0,0,0,0,0,-5.0339,-5.0412,-5.0395,-5.0407,-5.0461,-5.0513,-5.0519,-5.0503,-5.0467,-5.0501,-5.05,-5.0469,-5.0569,-5.053,-5.0541,-5.0589,-5.0689,-5.0697,-5.0704,-5.077,-5.0787,-5.0801,0,0,0,0,0,0,-5.0402,-5.0413,-5.0395,-5.0474,-5.0493,-5.0503,-5.0545,-5.0522,-5.055,-5.0542,-5.052,-5.0523,-5.0592,-5.0597,-5.0553,-5.0675,-5.0622,-5.0632,-5.0669,-5.0685,-5.0697,-5.0694,-5.0494,0,0,0,0,0,-5.0426,-5.0468,-5.0475,-5.0544,-5.0555,-5.0549,-5.057,-5.0556,-5.0574,-5.0582,-5.0586,-5.0603,-5.0638,-5.0662,-5.0694,-5.0777,-5.0778,-5.0815,-5.0828,-5.0839,-5.0847,-5.0891,-5.0907,-5.0732,-5.0732,-5.0732,0,0,-5.0474,-5.0485,-5.0513,-5.0557,-5.057,-5.0613,-5.0555,-5.0603,-5.0634,-5.0588,-5.0649,-5.0653,-5.0671,-5.0744,-5.0777,-5.0751,-5.0896,-5.0848,-5.0856,-5.0859,-5.09,-5.0917,-5.0931,-5.0737,-5.0736,-5.0736,0,0,-5.0584,-5.0598,-5.0657,-5.0672,-5.0693,-5.0688,-5.0703,-5.0716,-5.0717,-5.0779,-5.0745,-5.0781,-5.0842,-5.0856,-5.0871,-5.0987,-5.0959,-5.0998,-5.1064,-5.1107,-5.1121,-5.1133,-5.1174,-5.1189,-5.1007,-5.1007,-5.1007,0,-5.0641,-5.0706,-5.069,-5.074,-5.076,-5.0723,-5.0782,-5.0796,-5.0826,-5.084,-5.081,-5.0887,-5.0896,-5.0972,-5.1001,-5.1014,-5.1029,-5.0996,-5.1121,-5.1132,-5.1143,-5.1182,-5.1198,-5.1012,-5.1011,-5.1011,-5.101,0,-5.0774,-5.082,-5.0865,-5.0897,-5.0922,-5.0976,-5.0967,-5.0994,-5.0978,-5.0976,-5.1039,-5.1049,-5.1082,-5.1099,-5.1084,-5.1173,-5.1156,-5.1124,-5.1071,-5.1165,-5.1201,-5.1216,-5.1018,-5.1017,-5.1015,-5.1014,0,0,-5.0924,-5.0948,-5.0965,-5.0979,-5.1,-5.1034,-5.1086,-5.1121,-5.1144,-5.1166,-5.1208,-5.1261,-5.1232,-5.1249,-5.1235,-5.1272,-5.1363,-5.1235,-5.1235,-5.1258,-5.1462,-5.1486,-5.1503,-5.1345,-5.1348,-5.135,-5.146,0,-5.1034,-5.1127,-5.1114,-5.1202,-5.1243,-5.1208,-5.1254,-5.1271,-5.127,-5.1304,-5.1303,-5.1341,-5.1299,-5.1309,-5.1345,-5.1345,-5.1404,-5.1337,-5.1383,-5.1385,-5.1379,-5.1522,-5.1547,-5.1651,-5.1474,-5.1476,-5.1478,0,-5.1174,-5.1203,-5.1296,-5.1311,-5.1328,-5.1369,-5.14,-5.1433,-5.1451,-5.1448,-5.1468,-5.1447,-5.1498,-5.1445,-5.1514,-5.1469,-5.1487,-5.149,-5.1493,-5.1496,-5.1437,-5.1528,-5.1683,-5.1699,-5.15,-5.1498,-5.1497,0,-5.1274,-5.1336,-5.14,-5.1413,-5.1432,-5.1462,-5.1471,-5.1486,-5.1508,-5.1534,-5.1548,-5.1579,-5.1596,-5.162,-5.1608,-5.157,-5.1679,-5.1625,-5.1677,-5.1677,-5.17,-5.1699,-5.186,-5.1714,-5.1713,-5.1713,-5.1713,0,-5.1397,-5.1455,-5.1445,-5.1484,-5.1548,-5.1532,-5.1595,-5.1599,-5.1613,-5.1651,-5.1623,-5.1659,-5.164,-5.1675,-5.1665,-5.1723,-5.1731,-5.1729,-5.1726,-5.1732,-5.1732,-5.1743,-5.1735,-5.1717,-5.1716,-5.1715,-5.1715,0,-5.1519,-5.1515,-5.1582,-5.1595,-5.1599,-5.1646,-5.1656,-5.1692,-5.169,-5.1739,-5.1749,-5.1745,-5.1784,-5.1774,-5.1816,-5.181,-5.1883,-5.1871,-5.1878,-5.1875,-5.1927,-5.1922,-5.21,-5.2122,-5.1962,-5.1964,-5.1965,0,-5.1598,-5.1642,-5.166,-5.1685,-5.1697,-5.1736,-5.1759,-5.1745,-5.1769,-5.1793,-5.1826,-5.1863,-5.1892,-5.1955,-5.1955,-5.1987,-5.1975,-5.2035,-5.1979,-5.1984,-5.1975,-5.1972,-5.1976,-5.2046,-5.2048,-5.2049,-5.205,0,-5.1738,-5.1734,-5.1768,-5.1803,-5.1831,-5.1856,-5.1879,-5.19,-5.1888,-5.1916,-5.1957,-5.1979,-5.2023,-5.206,-5.2089,-5.2096,-5.2071,-5.2068,-5.2082,-5.2088,-5.209,-5.2089,-5.1908,-5.2064,-5.2063,-5.2062,-5.2061,-5.206,-5.184,-5.1877,-5.1897,-5.1936,-5.1952,-5.1974,-5.2009,-5.2012,-5.2046,-5.2082,-5.2071,-5.2117,-5.2133,-5.2171,-5.2182,-5.2217,-5.2193,-5.2213,-5.2218,-5.2223,-5.223,-5.2085,-5.2222,-5.2221,-5.2221,-5.2221,-5.222,0,-5.1978,-5.1989,-5.2026,-5.2059,-5.209,-5.2066,-5.209,-5.2117,-5.2158,-5.2177,-5.2206,-5.2252,-5.2288,-5.2291,-5.2324,-5.2351,-5.234,-5.236,-5.2358,-5.236,-5.2249,-5.2233,-5.2368,-5.2368,-5.2368,-5.2368,-5.2368,-5.2368,-5.2053,-5.2116,-5.2114,-5.2184,-5.2194,-5.224,-5.2256,-5.2276,-5.2291,-5.2344,-5.2374,-5.2377,-5.2389,-5.2423,-5.2454,-5.2453,-5.2467,-5.2491,-5.2486,-5.2382,-5.2367,-5.2353,-5.2339,-5.2494,-5.2494,-5.2594,-5.2595,-5.2596]}]]